This is the latest recevied weather packets stored in our database for station/object K1KOF. If no packets are shown the sender has not sent any weather packets the latest 10 day(s).
| Time | Temp. | Humidity | Pressure | Rain* | Wind** | Luminosity | Snow |
|---|---|---|---|---|---|---|---|
| 1777921595 | 25.56° C | 38% | 1025.9 hPa | 0 mm | - | 710 W/m² | - |
| 1777920685 | 25.56° C | 38% | 1026 hPa | 0 mm | - | 688 W/m² | - |
| 1777917658 | 23.89° C | 40% | 1026.5 hPa | 0 mm | - | 766 W/m² | - |
| 1777915536 | 23.89° C | 38% | 1026.9 hPa | 0 mm | - | 717 W/m² | - |
| 1777914930 | 23.89° C | 40% | 1026.8 hPa | 0 mm | - | 766 W/m² | - |
| 1777912806 | 23.33° C | 40% | 1027.1 hPa | 0 mm | - | 745 W/m² | - |
| 1777910683 | 22.78° C | 46% | 1028 hPa | 0 mm | - | 505 W/m² | - |
| 1777909167 | 22.78° C | 42% | 1028.2 hPa | 0 mm | - | 598 W/m² | - |
| 1777908865 | 22.78° C | 43% | 1028.1 hPa | 0 mm | - | 568 W/m² | - |
| 1777908562 | 22.22° C | 45% | 1028.1 hPa | 0 mm | - | 606 W/m² | - |
| 1777907955 | 21.67° C | 46% | 1028.2 hPa | 0 mm | - | 515 W/m² | - |
| 1777907346 | 21.11° C | 47% | 1028.3 hPa | 0 mm | - | 608 W/m² | - |
| 1777907043 | 22.22° C | 48% | 1028.1 hPa | 0 mm | - | 721 W/m² | - |
| 1777906740 | 21.67° C | 46% | 1028.1 hPa | 0 mm | - | 626 W/m² | - |
| 1777906436 | 21.67° C | 46% | 1028.2 hPa | 0 mm | - | 510 W/m² | - |
| 1777906134 | 21.11° C | 47% | 1028.2 hPa | 0 mm | - | 477 W/m² | - |
| 1777905830 | 21.67° C | 49% | 1028.3 hPa | 0 mm | - | 689 W/m² | - |
| 1777905527 | 20.56° C | 50% | 1028.2 hPa | 0 mm | - | 547 W/m² | - |
| 1777905224 | 21.11° C | 51% | 1028.2 hPa | 0 mm | - | 495 W/m² | - |
| 1777904922 | 20.56° C | 54% | 1028.2 hPa | 0 mm | - | 662 W/m² | - |
| 1777904619 | 20.56° C | 54% | 1028 hPa | 0 mm | - | 659 W/m² | - |
| 1777904316 | 20.56° C | 54% | 1028.3 hPa | 0 mm | - | 499 W/m² | - |
| 1777904013 | 20° C | 60% | 1028.3 hPa | 0 mm | - | 527 W/m² | - |
| 1777903709 | 18.89° C | 61% | 1028.5 hPa | 0 mm | - | 546 W/m² | - |
| 1777903405 | 20° C | 60% | 1028.5 hPa | 0 mm | - | 522 W/m² | - |
* Rain latest hour (hover to see other rain measurements)
** Current wind speed in m/s (hover to see current wind gust speed)